Location: Ferchesar
(52.6477°N, 12.4298°E)
Time: 17:51:13
(UTC+01:00)

Transit 4A - Pass Details

Date: 16 December 2021
Orbit: 864 x 980 km, 66.8° (Epoch: 16 January)

Event Time Altitude Azimuth Distance (km) Brightness Sun altitude
Rises 21:16:42 0° 299° (WNW) 3,560 11.7 -46.6°
Reaches altitude 10° 21:19:50 10° 315° (NW) 2,639 10.8 -47.0°
Enters shadow 21:20:31 12° 320° (NW) 2,466 10.5 -47.1°
